Regional Weather Roundup
Issued by NWS Northern Indiana

Home | Current Version | Previous Version | Graphics & Text | Print | Product List | Glossary On
Versions: 1 2 3 4 5 6 7 8 9 10 11 12 13 14 15 16 17 18 19 20 21 22 23 24 25 26 27 28 29 30 31 32 33 34 35 36 37 38 39 40 41 42 43 44 45 46 47 48 49 50
000
ASUS43 KIWX 221110
RWRIWX

KIWX WEATHER ROUNDUP
NATIONAL WEATHER SERVICE NORTHERN INDIANA
700 AM EDT THU JUN 22 2017

NOTE: "FAIR" INDICATES FEW OR NO CLOUDS BELOW 12,000 FEET WITH NO
SIGNIFICANT WEATHER AND/OR OBSTRUCTIONS TO VISIBILITY.

* THESE STATIONS ARE NOT UNDER NWS QUALITY CONTROL. THEY ALSO MAY NOT
  REPORT WEATHER SUCH AS PRECIPITATION OR FOG.

INZ001>027-221200-
NORTHERN INDIANA

CITY           SKY/WX    TMP DP  RH WIND       PRES   REMARKS
GARY*          MOCLDY    77  66  69 SW8       29.87R
VALPARAISO     PTCLDY    75  68  78 SW10      29.90R
MICHIGAN CITY* PTCLDY    73  64  73 SW7       29.89R
LAPORTE*       CLOUDY    74  67  79 SW10      29.90R
KNOX*          CLOUDY    72  59  64 SW9       29.89S
SOUTH BEND     CLOUDY    73  68  84 SW10      29.89S
ELKHART*       CLOUDY    73  66  78 SW3       29.90
GOSHEN         CLOUDY    73  66  78 SW9       29.90S
MONTICELLO*    CLOUDY    74  67  80 SW9G16    29.91S
LOGANSPORT*    PTCLDY    72  66  83 SW8       29.93F
ROCHESTER*     CLOUDY    75  70  83 SW8       29.92S
WARSAW*        CLOUDY    73  64  73 SW5       29.91F
AUBURN*        CLOUDY    70  64  83 CALM      29.92F
FORT WAYNE     CLOUDY    74  68  81 SW9       29.93F
PERU/GRISSOM   CLOUDY    73  70  91 SW9       29.92S

$$
INZ028>050-221200-
CENTRAL INDIANA

CITY           SKY/WX    TMP DP  RH WIND       PRES   REMARKS
LAFAYETTE      MOCLDY    72  68  87 S7        29.92S
KOKOMO*        MOCLDY    74  68  81 SW12      29.95S
MUNCIE*        PTCLDY    74  67  78 SW8       29.97R
INDIANAPOLIS   MOCLDY    71  67  87 S7        29.96R

$$
MIZ043>046-050>051-056>058-064>065-071>073-077>080-221200-
SOUTHWEST LOWER MICHIGAN

CITY           SKY/WX    TMP DP  RH WIND       PRES   REMARKS
BATTLE CREEK   CLOUDY    70  59  68 S13       29.88F
BENTON HARBOR  PTCLDY    74  65  73 S8        29.86R
COLDWATER*     CLOUDY    69  59  70 S6        29.91S
HILLSDALE*     CLOUDY    63  52  67 S7        29.92S
HOLLAND        PTCLDY    70  61  73 S9        29.84R
GRAND RAPIDS   CLOUDY    69  60  73 S15       29.83S
KALAMAZOO      CLOUDY    69  59  70 S10       29.88F
STURGIS*       CLOUDY    69  64  84 SW3       29.91R
THREE RIVERS*  FAIR      69  61  77 SW5       29.90S

$$
OHZ001>008-015>018-024>025-221200-
NORTHWEST OHIO

CITY           SKY/WX    TMP DP  RH WIND       PRES   REMARKS
WAUSEON*       FAIR      68  57  68 S7        29.91F
DEFIANCE       PTCLDY    68  62  81 S5        29.92F
FINDLAY        CLOUDY    72  65  78 S6        29.93F
TOLEDO EXPRESS CLOUDY    65  56  72 S3        29.91F
TOLEDO METCALF CLOUDY    68  59  73 S7        29.92F
LIMA           CLOUDY    73  68  84 SW7       29.96S

$$
AND FOR LAKE MICHIGAN COASTAL AND OPEN LAKE BUOY OBSERVATIONS

STATION/POSITION TEMP    WIND        PRES    VSBY  WAVE
                 AIR SEA DIR/SP/G                  HT/PER
                 (F)     (DEG/KT/KT) (MB)    (MI)  (FT/S)
CALUMET HARBOR    76     210/  6/ 12 1011.0R
MICHIGAN CITY     77     200/ 12/ 14   N/A
BURNS HARBOR      77     210/ 15/ 19 1011.9R
SOUTH LAKE BUOY   66 61  160/ 14/ 17 1008.7          2/ 3
4 MI NW BRIDGMAN  72 69  210/  8/  8 1011.4          1/ 3
MICHIGAN CITY     73 68  220/ 10/ 14   N/A           2/ 2

$$
&&




USA.gov is the U.S. government's official web portal to all federal, state and local government web resources and services.